Back to catalog

THOR ABLESTAR DEB

AliveLEO
NORAD 335·DEBRIS·🇺🇸 United States

Launched Jun 29, 1961 from Cape Canaveral Space Force Station

Loading…

Next Passes (next 24 hours)

TLE

FreshSource: Space-Track

Epoch: Sep 13, 2026, 07:59 UTC

1   335U 61015DM  26256.33285957  .00000581  00000-0  29234-3 0  9994
2   335  66.8371 262.9579 0030697 109.8370 250.6039 14.23087852339850

Track THOR ABLESTAR DEB in real time with AllMySat

Download on the App Store